| time (UTC) | temp F | wind direction | speed knots | gust knots | rain 1hr in | rain 24hr in | rain mn in | humidity % | barometer mb |
| 20260507221513 | 61 | 274 | 1.7 | 4.3 | 0.00 | 0.13 | 0.03 | 26 | 1007.4 |
| 20260507221011 | 61 | 292 | 3.5 | 6.1 | 0.00 | 0.13 | 0.03 | 26 | 1007.3 |
| 20260507220509 | 61 | 280 | 3.5 | 9.6 | 0.00 | 0.13 | 0.03 | 25 | 1007.5 |
| 20260507220249 | 62 | 292 | 4.3 | 9.6 | 0.00 | 0.13 | 0.03 | 26 | 1007.5 |
| 20260507215507 | 62 | 272 | 3.5 | 8.7 | 0.00 | 0.13 | 0.03 | 25 | 1007.3 |
| 20260507215007 | 62 | 328 | 2.6 | 7.0 | 0.00 | 0.14 | 0.03 | 26 | 1007.1 |
| 20260507214506 | 62 | 279 | 3.5 | 9.6 | 0.00 | 0.14 | 0.03 | 26 | 1007.1 |
| 20260507214006 | 62 | 264 | 3.5 | 9.6 | 0.00 | 0.14 | 0.03 | 25 | 1007.1 |
| 20260507213753 | 62 | 317 | 3.5 | 8.7 | 0.00 | 0.14 | 0.03 | 26 | 1007.0 |
| 20260507213006 | 63 | 234 | 4.3 | 11.3 | 0.00 | 0.14 | 0.03 | 25 | 1007.0 |
| 20260507212504 | 63 | 311 | 3.5 | 11.3 | 0.00 | 0.14 | 0.03 | 25 | 1006.9 |
| 20260507212006 | 62 | 306 | 4.3 | 8.7 | 0.00 | 0.14 | 0.03 | 25 | 1007.0 |
| 20260507211504 | 62 | 295 | 3.5 | 8.7 | 0.00 | 0.15 | 0.03 | 25 | 1007.0 |
| 20260507211005 | 63 | 276 | 3.5 | 8.7 | 0.00 | 0.15 | 0.03 | 26 | 1007.1 |
| 20260507210506 | 63 | 259 | 3.5 | 8.7 | 0.00 | 0.15 | 0.03 | 25 | 1007.1 |
| 20260507210246 | 63 | 318 | 2.6 | 7.8 | 0.00 | 0.15 | 0.03 | 26 | 1007.0 |
| 20260507205503 | 63 | 307 | 3.5 | 7.8 | 0.00 | 0.15 | 0.03 | 26 | 1007.0 |
| 20260507205005 | 63 | 287 | 3.5 | 7.8 | 0.00 | 0.16 | 0.03 | 25 | 1007.0 |
| 20260507204504 | 63 | 282 | 3.5 | 8.7 | 0.00 | 0.16 | 0.03 | 27 | 1007.0 |
| 20260507204004 | 63 | 244 | 4.3 | 13.9 | 0.00 | 0.16 | 0.03 | 28 | 1006.9 |
| 20260507203503 | 63 | 276 | 5.2 | 13.9 | 0.00 | 0.17 | 0.03 | 27 | 1006.9 |
| 20260507203252 | 63 | 223 | 5.2 | 11.3 | 0.00 | 0.17 | 0.03 | 26 | 1006.7 |
| 20260507202803 | 63 | 299 | 4.3 | 11.3 | 0.00 | 0.18 | 0.03 | 25 | 1006.8 |
| 20260507202005 | 64 | 25 | 3.5 | 11.3 | 0.00 | 0.18 | 0.03 | 27 | 1006.9 |
| 20260507201503 | 64 | 296 | 4.3 | 11.3 | 0.00 | 0.18 | 0.03 | 26 | 1006.8 |
| 20260507201004 | 64 | 251 | 4.3 | 8.7 | 0.00 | 0.19 | 0.03 | 24 | 1007.0 |
| 20260507200503 | 64 | 272 | 3.5 | 8.7 | 0.00 | 0.20 | 0.03 | 26 | 1006.9 |
| 20260507200005 | 65 | 310 | 4.3 | 11.3 | 0.00 | 0.20 | 0.03 | 25 | 1006.9 |
| 20260507195503 | 65 | 217 | 4.3 | 11.3 | 0.00 | 0.20 | 0.03 | 26 | 1006.8 |
| 20260507195008 | 65 | 215 | 3.5 | 10.4 | 0.00 | 0.20 | 0.03 | 25 | 1006.9 |
| 20260507194504 | 65 | 26 | 2.6 | 6.1 | 0.00 | 0.20 | 0.03 | 24 | 1006.9 |
| 20260507194008 | 65 | 284 | 3.5 | 11.3 | 0.00 | 0.20 | 0.03 | 24 | 1007.0 |
| 20260507193500 | 65 | 199 | 4.3 | 11.3 | 0.00 | 0.20 | 0.03 | 24 | 1007.0 |
| 20260507193232 | 65 | 264 | 3.5 | 11.3 | 0.00 | 0.21 | 0.03 | 24 | 1007.1 |
| 20260507192449 | 65 | 237 | 1.7 | 11.3 | 0.00 | 0.21 | 0.03 | 27 | 1007.1 |
| 20260507191943 | 64 | 253 | 3.5 | 10.4 | 0.00 | 0.21 | 0.03 | 25 | 1007.2 |
| 20260507191442 | 64 | 341 | 4.3 | 10.4 | 0.00 | 0.22 | 0.03 | 24 | 1007.4 |
| 20260507190947 | 64 | 299 | 3.5 | 8.7 | 0.00 | 0.22 | 0.03 | 24 | 1007.3 |
| 20260507190442 | 64 | 283 | 4.3 | 13.0 | 0.00 | 0.22 | 0.03 | 25 | 1007.3 |
| 20260507185941 | 64 | 341 | 5.2 | 13.0 | 0.00 | 0.22 | 0.03 | 24 | 1007.5 |
| 20260507185440 | 64 | 202 | 4.3 | 9.6 | 0.00 | 0.22 | 0.03 | 28 | 1007.4 |
| 20260507184942 | 64 | 312 | 4.3 | 9.6 | 0.00 | 0.22 | 0.03 | 24 | 1007.4 |
| 20260507184731 | 64 | 324 | 4.3 | 10.4 | 0.00 | 0.22 | 0.03 | 25 | 1007.5 |
| 20260507183941 | 64 | 289 | 3.5 | 10.4 | 0.00 | 0.22 | 0.03 | 24 | 1007.5 |
| 20260507183442 | 64 | 276 | 3.5 | 9.6 | 0.00 | 0.22 | 0.03 | 28 | 1007.3 |
| 20260507182944 | 64 | 303 | 5.2 | 14.8 | 0.00 | 0.22 | 0.03 | 24 | 1007.5 |
| 20260507182440 | 64 | 220 | 5.2 | 14.8 | 0.00 | 0.22 | 0.03 | 27 | 1007.5 |
| 20260507182217 | 64 | 351 | 4.3 | 13.0 | 0.00 | 0.22 | 0.03 | 24 | 1007.6 |
| 20260507181438 | 64 | 335 | 5.2 | 13.0 | 0.00 | 0.22 | 0.03 | 24 | 1007.8 |
| 20260507180940 | 64 | 273 | 4.3 | 11.3 | 0.00 | 0.22 | 0.03 | 25 | 1007.7 |
| 20260507180438 | 63 | 351 | 3.5 | 7.8 | 0.00 | 0.22 | 0.03 | 25 | 1007.7 |
| 20260507175937 | 63 | 278 | 5.2 | 13.0 | 0.00 | 0.22 | 0.03 | 25 | 1007.7 |
| 20260507175441 | 63 | 290 | 6.1 | 13.0 | 0.00 | 0.22 | 0.03 | 25 | 1007.7 |
| 20260507174939 | 64 | 282 | 3.5 | 12.2 | 0.00 | 0.22 | 0.03 | 26 | 1007.7 |
| 20260507174440 | 64 | 228 | 3.5 | 9.6 | 0.00 | 0.22 | 0.03 | 31 | 1007.7 |
| 20260507174215 | 63 | 259 | 4.3 | 10.4 | 0.00 | 0.22 | 0.03 | 29 | 1007.7 |
| 20260507173438 | 64 | 299 | 3.5 | 10.4 | 0.00 | 0.22 | 0.03 | 27 | 1007.6 |
| 20260507172938 | 64 | 227 | 2.6 | 7.0 | 0.00 | 0.22 | 0.03 | 31 | 1007.5 |
| 20260507172440 | 63 | 315 | 3.5 | 9.6 | 0.00 | 0.22 | 0.03 | 29 | 1007.6 |
| 20260507172220 | 63 | 303 | 3.5 | 9.6 | 0.00 | 0.22 | 0.03 | 28 | 1007.7 |
| 20260507171438 | 62 | 253 | 2.6 | 8.7 | 0.00 | 0.22 | 0.03 | 32 | 1007.7 |
| 20260507170939 | 62 | 302 | 3.5 | 9.6 | 0.00 | 0.22 | 0.03 | 32 | 1007.9 |
| 20260507170440 | 62 | 278 | 4.3 | 13.9 | 0.00 | 0.22 | 0.03 | 32 | 1008.0 |
| 20260507165939 | 62 | 242 | 5.2 | 13.9 | 0.00 | 0.22 | 0.03 | 31 | 1008.1 |
| 20260507165436 | 62 | 287 | 5.2 | 12.2 | 0.00 | 0.22 | 0.03 | 31 | 1008.1 |
| 20260507164936 | 62 | 247 | 5.2 | 11.3 | 0.00 | 0.22 | 0.03 | 36 | 1008.1 |
| 20260507164435 | 62 | 308 | 4.3 | 11.3 | 0.00 | 0.22 | 0.03 | 30 | 1008.2 |
| 20260507164216 | 62 | 228 | 4.3 | 9.6 | 0.00 | 0.22 | 0.03 | 33 | 1008.2 |
| 20260507163431 | 62 | 280 | 5.2 | 12.2 | 0.00 | 0.22 | 0.03 | 34 | 1008.2 |
| 20260507162932 | 62 | 250 | 4.3 | 12.2 | 0.00 | 0.22 | 0.03 | 40 | 1008.3 |
| 20260507162431 | 61 | 276 | 4.3 | 12.2 | 0.00 | 0.22 | 0.03 | 37 | 1008.2 |
| 20260507162234 | 61 | 297 | 3.5 | 10.4 | 0.00 | 0.22 | 0.03 | 40 | 1008.3 |
| 20260507162230 | 60 | 322 | 3.5 | 8.7 | 0.00 | 0.22 | 0.03 | 42 | 1008.3 |
| 20260507160932 | 60 | 256 | 4.3 | 9.6 | 0.00 | 0.22 | 0.03 | 41 | 1008.4 |
| 20260507160716 | 60 | 272 | 3.5 | 9.6 | 0.00 | 0.22 | 0.03 | 45 | 1008.3 |
| 20260507155927 | 60 | 272 | 3.5 | 9.6 | 0.00 | 0.22 | 0.03 | 47 | 1008.3 |
| 20260507155721 | 59 | 305 | 3.5 | 8.7 | 0.00 | 0.22 | 0.03 | 48 | 1008.3 |
| 20260507155006 | 59 | 271 | 4.3 | 10.4 | 0.00 | 0.22 | 0.03 | 48 | 1008.5 |
| 20260507154954 | 59 | 303 | 4.3 | 7.8 | 0.00 | 0.22 | 0.03 | 48 | 1008.5 |
| 20260507154208 | 59 | 324 | 3.5 | 10.4 | 0.00 | 0.22 | 0.03 | 48 | 1008.4 |
| 20260507153428 | 59 | 310 | 2.6 | 7.8 | 0.00 | 0.22 | 0.03 | 49 | 1008.5 |
| 20260507152922 | 59 | 288 | 3.5 | 9.6 | 0.00 | 0.22 | 0.03 | 49 | 1008.6 |
| 20260507152414 | 59 | 285 | 3.5 | 9.6 | 0.00 | 0.22 | 0.03 | 49 | 1008.7 |
| 20260507151912 | 59 | 294 | 2.6 | 8.7 | 0.00 | 0.22 | 0.03 | 50 | 1008.7 |
| 20260507151414 | 58 | 355 | 2.6 | 7.8 | 0.00 | 0.22 | 0.03 | 51 | 1008.8 |
| 20260507150912 | 58 | 239 | 2.6 | 7.0 | 0.00 | 0.22 | 0.03 | 49 | 1008.9 |
| 20260507150657 | 59 | 293 | 1.7 | 7.0 | 0.00 | 0.22 | 0.03 | 50 | 1009.0 |
| 20260507145910 | 59 | 215 | 2.6 | 7.0 | 0.00 | 0.22 | 0.03 | 50 | 1009.0 |
| 20260507145409 | 59 | 297 | 1.7 | 7.0 | 0.00 | 0.22 | 0.03 | 49 | 1009.2 |
| 20260507144909 | 59 | 316 | 2.6 | 6.1 | 0.00 | 0.22 | 0.03 | 49 | 1009.1 |
| 20260507144658 | 59 | 292 | 2.6 | 7.0 | 0.00 | 0.22 | 0.03 | 52 | 1009.1 |
| 20260507143905 | 58 | 222 | 1.7 | 7.0 | 0.00 | 0.22 | 0.03 | 52 | 1009.2 |
| 20260507143405 | 58 | 247 | 1.7 | 7.0 | 0.00 | 0.22 | 0.03 | 50 | 1009.1 |
| 20260507142903 | 58 | 295 | 2.6 | 7.0 | 0.00 | 0.22 | 0.03 | 51 | 1009.1 |
| 20260507142404 | 58 | 286 | 2.6 | 6.1 | 0.00 | 0.22 | 0.03 | 49 | 1009.1 |
| 20260507141902 | 58 | 243 | 2.6 | 7.0 | 0.00 | 0.22 | 0.03 | 49 | 1009.1 |
| 20260507141403 | 58 | 207 | 2.6 | 7.0 | 0.00 | 0.22 | 0.03 | 50 | 1009.2 |
| 20260507141145 | 58 | 21 | 3.5 | 8.7 | 0.00 | 0.22 | 0.03 | 50 | 1009.1 |
| 20260507140651 | 58 | 290 | 3.5 | 8.7 | 0.00 | 0.22 | 0.03 | 50 | 1009.1 |
| 20260507135905 | 58 | 213 | 2.6 | 6.1 | 0.00 | 0.22 | 0.03 | 51 | 1009.1 |
| 20260507135651 | 58 | 309 | 1.7 | 5.2 | 0.00 | 0.22 | 0.03 | 52 | 1009.1 |
| 20260507134906 | 58 | 265 | 0.9 | 3.5 | 0.00 | 0.22 | 0.03 | 53 | 1009.0 |
| 20260507134354 | 57 | 301 | 1.7 | 4.3 | 0.00 | 0.22 | 0.03 | 54 | 1009.0 |
| 20260507134131 | 56 | 276 | 2.6 | 6.1 | 0.00 | 0.22 | 0.03 | 54 | 1009.0 |
| 20260507133354 | 56 | 286 | 2.6 | 6.1 | 0.00 | 0.22 | 0.03 | 55 | 1009.2 |
| 20260507132852 | 56 | 274 | 2.6 | 7.0 | 0.00 | 0.22 | 0.03 | 58 | 1009.3 |
| 20260507132350 | 56 | 301 | 2.6 | 7.0 | 0.00 | 0.22 | 0.03 | 59 | 1009.3 |
| 20260507131850 | 55 | 288 | 2.6 | 7.0 | 0.00 | 0.22 | 0.03 | 59 | 1009.5 |
| 20260507131350 | 55 | 251 | 2.6 | 5.2 | 0.00 | 0.22 | 0.03 | 61 | 1009.5 |
| 20260507130851 | 54 | 322 | 2.6 | 7.0 | 0.00 | 0.22 | 0.03 | 61 | 1009.5 |
| 20260507130349 | 54 | 305 | 2.6 | 7.0 | 0.00 | 0.22 | 0.03 | 62 | 1009.5 |
| 20260507125851 | 54 | 282 | 2.6 | 5.2 | 0.00 | 0.22 | 0.03 | 63 | 1009.6 |
| 20260507125350 | 53 | 277 | 2.6 | 6.1 | 0.00 | 0.22 | 0.03 | 64 | 1009.6 |
| 20260507124850 | 53 | 299 | 3.5 | 7.0 | 0.00 | 0.22 | 0.03 | 65 | 1009.7 |
| 20260507124350 | 52 | 269 | 3.5 | 7.8 | 0.00 | 0.22 | 0.03 | 66 | 1009.6 |
| 20260507123850 | 52 | 276 | 2.6 | 7.8 | 0.00 | 0.22 | 0.03 | 67 | 1009.6 |
| 20260507123350 | 51 | 304 | 2.6 | 7.8 | 0.00 | 0.22 | 0.03 | 68 | 1009.7 |
| 20260507123138 | 51 | 284 | 3.5 | 7.8 | 0.00 | 0.22 | 0.03 | 69 | 1009.6 |
| 20260507122349 | 51 | 286 | 2.6 | 7.0 | 0.00 | 0.22 | 0.03 | 71 | 1009.8 |
| 20260507121852 | 51 | 267 | 1.7 | 4.3 | 0.00 | 0.22 | 0.03 | 71 | 1009.7 |
| 20260507121347 | 50 | 293 | 2.6 | 5.2 | 0.00 | 0.22 | 0.03 | 72 | 1009.7 |
| 20260507120847 | 50 | 297 | 2.6 | 5.2 | 0.00 | 0.22 | 0.03 | 72 | 1009.8 |
| 20260507120635 | 50 | 307 | 2.6 | 5.2 | 0.00 | 0.22 | 0.03 | 72 | 1009.9 |
| 20260507115848 | 50 | 307 | 2.6 | 5.2 | 0.00 | 0.22 | 0.03 | 73 | 1009.8 |
| 20260507115644 | 49 | 290 | 1.7 | 5.2 | 0.00 | 0.22 | 0.03 | 73 | 1009.7 |
| 20260507114847 | 49 | 274 | 1.7 | 3.5 | 0.00 | 0.22 | 0.03 | 73 | 1009.6 |
| 20260507114348 | 49 | 290 | 1.7 | 5.2 | 0.00 | 0.22 | 0.03 | 73 | 1009.6 |
| 20260507114131 | 49 | 269 | 1.7 | 5.2 | 0.00 | 0.22 | 0.03 | 74 | 1009.6 |
| 20260507113347 | 49 | 274 | 1.7 | 4.3 | 0.00 | 0.22 | 0.03 | 74 | 1009.7 |
| 20260507112846 | 49 | 282 | 0.9 | 2.6 | 0.00 | 0.22 | 0.03 | 74 | 1009.6 |
| 20260507112345 | 49 | 284 | 0.9 | 2.6 | 0.00 | 0.22 | 0.03 | 74 | 1009.5 |
| 20260507111845 | 49 | 290 | 0.9 | 2.6 | 0.00 | 0.22 | 0.03 | 74 | 1009.4 |
| 20260507111346 | 49 | 290 | 0.9 | 2.6 | 0.00 | 0.22 | 0.03 | 75 | 1009.5 |
| 20260507110845 | 48 | 276 | 0.0 | 1.7 | 0.00 | 0.22 | 0.03 | 75 | 1009.5 |
| 20260507110638 | 48 | 276 | 0.0 | 1.7 | 0.00 | 0.22 | 0.03 | 75 | 1009.5 |
| 20260507105847 | 48 | 280 | 0.9 | 2.6 | 0.00 | 0.22 | 0.03 | 75 | 1009.6 |
| 20260507105343 | 48 | 280 | 0.9 | 2.6 | 0.00 | 0.22 | 0.03 | 75 | 1009.7 |
| 20260507104843 | 48 | 312 | 0.9 | 1.7 | 0.00 | 0.22 | 0.03 | 75 | 1009.5 |
| 20260507104345 | 48 | 317 | 0.9 | 1.7 | 0.00 | 0.22 | 0.03 | 75 | 1009.3 |
| 20260507103842 | 48 | 318 | 0.9 | 1.7 | 0.00 | 0.22 | 0.03 | 75 | 1009.0 |
| 20260507103344 | 48 | 318 | 0.0 | 1.7 | 0.00 | 0.22 | 0.03 | 75 | 1009.1 |
| 20260507102839 | 48 | 318 | 0.9 | 3.5 | 0.00 | 0.22 | 0.03 | 75 | 1008.8 |
| 20260507102341 | 48 | 292 | 0.9 | 3.5 | 0.00 | 0.22 | 0.03 | 75 | 1008.9 |
| 20260507101839 | 48 | 263 | 1.7 | 4.3 | 0.00 | 0.22 | 0.03 | 75 | 1008.7 |
| 20260507101340 | 48 | 307 | 1.7 | 4.3 | 0.00 | 0.22 | 0.03 | 76 | 1008.7 |
| 20260507100840 | 48 | 306 | 1.7 | 4.3 | 0.00 | 0.22 | 0.03 | 76 | 1008.9 |
| 20260507100339 | 48 | 299 | 1.7 | 3.5 | 0.00 | 0.22 | 0.03 | 76 | 1008.9 |
| 20260507095839 | 48 | 303 | 1.7 | 4.3 | 0.00 | 0.22 | 0.03 | 76 | 1008.7 |
| 20260507095339 | 49 | 332 | 1.7 | 4.3 | 0.00 | 0.22 | 0.03 | 76 | 1008.7 |
| 20260507095114 | 49 | 292 | 1.7 | 3.5 | 0.00 | 0.22 | 0.03 | 77 | 1008.9 |
| 20260507094335 | 49 | 302 | 0.9 | 3.5 | 0.00 | 0.22 | 0.03 | 77 | 1009.3 |
| 20260507093833 | 49 | 290 | 0.9 | 2.6 | 0.00 | 0.22 | 0.03 | 77 | 1008.9 |
| 20260507093618 | 49 | 274 | 0.0 | 1.7 | 0.00 | 0.22 | 0.03 | 77 | 1008.7 |
| 20260507092833 | 49 | 274 | 0.9 | 1.7 | 0.00 | 0.22 | 0.03 | 77 | 1009.2 |
| 20260507092333 | 49 | 276 | 0.9 | 1.7 | 0.00 | 0.22 | 0.03 | 77 | 1008.9 |
| 20260507091831 | 49 | 276 | 0.9 | 2.6 | 0.00 | 0.22 | 0.03 | 77 | 1008.9 |
| 20260507091613 | 49 | 272 | 0.9 | 3.5 | 0.00 | 0.22 | 0.03 | 78 | 1009.1 |
| 20260507090832 | 50 | 301 | 0.9 | 3.5 | 0.00 | 0.22 | 0.03 | 78 | 1009.2 |
| 20260507090618 | 50 | 222 | 0.9 | 2.6 | 0.00 | 0.22 | 0.03 | 78 | 1009.3 |
| 20260507085909 | 50 | 282 | 0.0 | 1.7 | 0.00 | 0.22 | 0.03 | 78 | 1008.9 |
| 20260507085856 | 50 | 255 | 0.9 | 2.6 | 0.00 | 0.22 | 0.03 | 78 | 1009.0 |
| 20260507084830 | 50 | 282 | 0.9 | 2.6 | 0.01 | 0.22 | 0.03 | 78 | 1008.9 |
| 20260507084330 | 50 | 297 | 0.9 | 2.6 | 0.01 | 0.22 | 0.03 | 78 | 1008.7 |
| 20260507083829 | 50 | 302 | 0.9 | 2.6 | 0.01 | 0.22 | 0.03 | 78 | 1008.8 |
| 20260507083330 | 50 | 261 | 1.7 | 4.3 | 0.01 | 0.22 | 0.03 | 78 | 1008.8 |
| 20260507083106 | 50 | 64 | 1.7 | 4.3 | 0.01 | 0.22 | 0.03 | 78 | 1008.4 |
| 20260507082331 | 51 | 300 | 0.9 | 2.6 | 0.01 | 0.22 | 0.03 | 79 | 1008.5 |
| 20260507082105 | 51 | 276 | 0.0 | 2.6 | 0.01 | 0.22 | 0.03 | 79 | 1008.5 |
| 20260507081326 | 51 | 276 | 0.0 | 1.7 | 0.01 | 0.22 | 0.03 | 79 | 1008.6 |
| 20260507080825 | 51 | 276 | 0.0 | 1.7 | 0.01 | 0.22 | 0.03 | 79 | 1008.5 |
| 20260507080612 | 51 | 273 | 0.0 | 1.7 | 0.01 | 0.22 | 0.03 | 79 | 1008.4 |
| 20260507075819 | 51 | 272 | 0.0 | 1.7 | 0.01 | 0.22 | 0.03 | 79 | 1008.6 |
| 20260507075318 | 51 | 281 | 0.0 | 2.6 | 0.01 | 0.22 | 0.03 | 79 | 1008.8 |
| 20260507074818 | 51 | 289 | 0.0 | 2.6 | 0.00 | 0.21 | 0.02 | 79 | 1008.6 |
| 20260507074317 | 51 | 289 | 0.9 | 1.7 | 0.00 | 0.21 | 0.02 | 79 | 1008.8 |
| 20260507073815 | 51 | 289 | 0.0 | 1.7 | 0.00 | 0.21 | 0.02 | 79 | 1008.9 |
| 20260507073313 | 51 | 289 | 0.0 | 0.9 | 0.00 | 0.21 | 0.02 | 79 | 1008.8 |
| 20260507073048 | 51 | 289 | 0.0 | 0.9 | 0.00 | 0.21 | 0.02 | 79 | 1008.5 |
| 20260507072313 | 51 | 289 | 0.0 | 0.9 | 0.00 | 0.21 | 0.02 | 80 | 1008.2 |
| 20260507071813 | 51 | 289 | 0.0 | 0.9 | 0.00 | 0.21 | 0.02 | 80 | 1008.1 |
| 20260507071555 | 51 | 289 | 0.0 | 1.7 | 0.00 | 0.21 | 0.02 | 80 | 1008.0 |
| 20260507070811 | 51 | 289 | 0.0 | 1.7 | 0.00 | 0.21 | 0.02 | 80 | 1007.9 |
| 20260507070311 | 51 | 288 | 0.0 | 1.7 | 0.00 | 0.21 | 0.02 | 80 | 1008.1 |
| 20260507065810 | 51 | 289 | 0.9 | 2.6 | 0.00 | 0.21 | 0.02 | 80 | 1007.9 |
| 20260507065309 | 51 | 289 | 0.9 | 2.6 | 0.00 | 0.21 | 0.02 | 80 | 1007.8 |
| 20260507064804 | 51 | 289 | 0.9 | 2.6 | 0.00 | 0.21 | 0.02 | 81 | 1007.7 |
| 20260507064306 | 52 | 285 | 0.9 | 2.6 | 0.00 | 0.21 | 0.02 | 81 | 1007.9 |
| 20260507063759 | 52 | 284 | 0.9 | 2.6 | 0.00 | 0.21 | 0.02 | 81 | 1007.9 |
| 20260507063253 | 52 | 294 | 0.0 | 1.7 | 0.00 | 0.21 | 0.02 | 81 | 1007.8 |
| 20260507063028 | 52 | 294 | 0.9 | 3.5 | 0.00 | 0.21 | 0.02 | 82 | 1007.9 |
| 20260507062241 | 52 | 294 | 0.9 | 3.5 | 0.00 | 0.21 | 0.02 | 82 | 1007.8 |
| 20260507061735 | 52 | 306 | 0.9 | 3.5 | 0.00 | 0.21 | 0.02 | 82 | 1007.6 |
| 20260507061517 | 52 | 234 | 1.7 | 3.5 | 0.00 | 0.21 | 0.02 | 82 | 1007.7 |
| 20260507060723 | 52 | 281 | 1.7 | 3.5 | 0.00 | 0.21 | 0.02 | 82 | 1007.9 |
| 20260507060217 | 53 | 298 | 1.7 | 4.3 | 0.00 | 0.21 | 0.02 | 82 | 1007.8 |
| 20260507055711 | 53 | 298 | 1.7 | 4.3 | 0.00 | 0.21 | 0.02 | 82 | 1007.8 |
| 20260507055458 | 53 | 303 | 1.7 | 4.3 | 0.00 | 0.21 | 0.02 | 82 | 1008.0 |
| 20260507054951 | 53 | 305 | 1.7 | 3.5 | 0.00 | 0.21 | 0.02 | 83 | 1008.0 |
| 20260507054209 | 54 | 280 | 0.9 | 3.5 | 0.00 | 0.21 | 0.02 | 83 | 1008.2 |
| 20260507053708 | 54 | 275 | 0.9 | 1.7 | 0.00 | 0.21 | 0.02 | 83 | 1008.4 |
| 20260507053207 | 54 | 288 | 0.9 | 1.7 | 0.00 | 0.21 | 0.02 | 83 | 1008.2 |
| 20260507052707 | 54 | 288 | 0.9 | 4.3 | 0.00 | 0.21 | 0.02 | 83 | 1008.0 |
| 20260507052205 | 54 | 288 | 1.7 | 4.3 | 0.00 | 0.21 | 0.02 | 83 | 1008.2 |
| 20260507051706 | 54 | 346 | 1.7 | 4.3 | 0.01 | 0.21 | 0.02 | 83 | 1008.3 |
| 20260507051205 | 54 | 270 | 1.7 | 4.3 | 0.01 | 0.21 | 0.02 | 83 | 1008.3 |
| 20260507050708 | 54 | 299 | 1.7 | 4.3 | 0.01 | 0.21 | 0.02 | 83 | 1008.3 |
| 20260507050205 | 55 | 311 | 1.7 | 3.5 | 0.01 | 0.21 | 0.02 | 83 | 1008.1 |
| 20260507045942 | 55 | 326 | 1.7 | 3.5 | 0.02 | 0.21 | 0.02 | 83 | 1008.2 |
| 20260507045204 | 55 | 295 | 1.7 | 4.3 | 0.03 | 0.21 | 0.02 | 83 | 1008.3 |
| 20260507044705 | 56 | 296 | 1.7 | 4.3 | 0.03 | 0.21 | 0.02 | 83 | 1008.3 |
| 20260507044205 | 56 | 305 | 1.7 | 5.2 | 0.03 | 0.21 | 0.02 | 83 | 1008.1 |
| 20260507043941 | 56 | 281 | 0.9 | 5.2 | 0.03 | 0.21 | 0.02 | 83 | 1008.1 |
| 20260507043202 | 56 | 311 | 0.9 | 3.5 | 0.03 | 0.21 | 0.02 | 83 | 1008.0 |
| 20260507042703 | 56 | 311 | 1.7 | 3.5 | 0.03 | 0.21 | 0.02 | 83 | 1007.9 |
| 20260507042443 | 56 | 305 | 0.9 | 3.5 | 0.03 | 0.21 | 0.01 | 83 | 1008.0 |
| 20260507041652 | 56 | 314 | 0.9 | 3.5 | 0.02 | 0.20 | 0.01 | 83 | 1008.0 |
| 20260507041146 | 57 | 259 | 1.7 | 4.3 | 0.02 | 0.20 | 0.01 | 84 | 1008.1 |
| 20260507040640 | 57 | 322 | 2.6 | 6.1 | 0.02 | 0.20 | 0.01 | 84 | 1008.2 |
| 20260507040142 | 57 | 284 | 2.6 | 7.0 | 0.02 | 0.20 | 0.00 | 84 | 1008.1 |
| 20260507035636 | 57 | 266 | 2.6 | 7.0 | 0.01 | 0.19 | 0.19 | 84 | 1007.9 |
| 20260507035138 | 58 | 284 | 2.6 | 7.0 | 0.00 | 0.18 | 0.18 | 84 | 1007.9 |
| 20260507034639 | 58 | 264 | 1.7 | 3.5 | 0.00 | 0.18 | 0.18 | 84 | 1007.8 |
| 20260507034137 | 58 | 257 | 2.6 | 6.1 | 0.00 | 0.18 | 0.18 | 84 | 1007.6 |
| 20260507033637 | 59 | 263 | 2.6 | 6.1 | 0.00 | 0.18 | 0.18 | 84 | 1007.7 |
| 20260507033136 | 59 | 252 | 1.7 | 6.1 | 0.00 | 0.18 | 0.18 | 84 | 1007.7 |
| 20260507032631 | 60 | 276 | 1.7 | 6.1 | 0.00 | 0.18 | 0.18 | 85 | 1007.6 |
| 20260507032132 | 60 | 242 | 1.7 | 6.1 | 0.00 | 0.18 | 0.18 | 84 | 1007.3 |
| 20260507031629 | 60 | 302 | 1.7 | 4.3 | 0.00 | 0.18 | 0.18 | 84 | 1007.3 |
| 20260507031128 | 60 | 252 | 1.7 | 3.5 | 0.00 | 0.18 | 0.18 | 84 | 1007.1 |
| 20260507030627 | 60 | 205 | 1.7 | 7.0 | 0.00 | 0.18 | 0.18 | 84 | 1007.0 |
| 20260507030127 | 60 | 270 | 1.7 | 7.0 | 0.00 | 0.18 | 0.18 | 84 | 1006.9 |
| 20260507025628 | 60 | 224 | 2.6 | 9.6 | 0.00 | 0.18 | 0.18 | 84 | 1006.9 |
| 20260507025126 | 60 | 207 | 2.6 | 9.6 | 0.00 | 0.18 | 0.18 | 84 | 1006.9 |
| 20260507024631 | 60 | 220 | 2.6 | 8.7 | 0.00 | 0.18 | 0.18 | 84 | 1007.0 |
| 20260507024123 | 60 | 195 | 2.6 | 8.7 | 0.00 | 0.18 | 0.18 | 84 | 1007.0 |
| 20260507023621 | 60 | 157 | 3.5 | 7.0 | 0.00 | 0.18 | 0.18 | 84 | 1006.9 |
| 20260507023119 | 60 | 211 | 3.5 | 7.8 | 0.00 | 0.18 | 0.18 | 84 | 1007.0 |
| 20260507022621 | 59 | 212 | 4.3 | 8.7 | 0.00 | 0.18 | 0.18 | 84 | 1007.0 |
| 20260507022118 | 59 | 208 | 3.5 | 8.7 | 0.00 | 0.18 | 0.18 | 84 | 1006.9 |
| 20260507021616 | 59 | 222 | 3.5 | 7.0 | 0.00 | 0.18 | 0.18 | 84 | 1006.9 |
| 20260507021115 | 59 | 223 | 2.6 | 7.0 | 0.00 | 0.18 | 0.18 | 84 | 1006.8 |
| 20260507020615 | 59 | 192 | 1.7 | 5.2 | 0.00 | 0.18 | 0.18 | 84 | 1006.7 |
| 20260507020114 | 59 | 186 | 2.6 | 7.0 | 0.00 | 0.18 | 0.18 | 84 | 1006.8 |
| 20260507015613 | 59 | 161 | 3.5 | 7.0 | 0.00 | 0.18 | 0.18 | 84 | 1006.8 |
| 20260507015112 | 59 | 243 | 3.5 | 7.0 | 0.00 | 0.18 | 0.18 | 84 | 1007.0 |
| 20260507014612 | 59 | 203 | 3.5 | 7.0 | 0.00 | 0.18 | 0.18 | 84 | 1007.0 |
| 20260507014354 | 59 | 234 | 2.6 | 7.0 | 0.00 | 0.18 | 0.18 | 84 | 1007.1 |
| 20260507013610 | 59 | 224 | 2.6 | 6.1 | 0.00 | 0.18 | 0.18 | 84 | 1007.1 |
| 20260507013108 | 59 | 184 | 2.6 | 6.1 | 0.00 | 0.18 | 0.18 | 84 | 1007.0 |
| 20260507012606 | 59 | 211 | 2.6 | 6.1 | 0.00 | 0.18 | 0.18 | 83 | 1006.9 |
| 20260507012108 | 59 | 210 | 3.5 | 8.7 | 0.00 | 0.18 | 0.18 | 83 | 1007.1 |
| 20260507011603 | 59 | 213 | 3.5 | 8.7 | 0.00 | 0.18 | 0.18 | 83 | 1007.1 |
| 20260507011340 | 59 | 201 | 3.5 | 7.0 | 0.00 | 0.18 | 0.18 | 83 | 1007.0 |
| 20260507010814 | 59 | 212 | 3.5 | 9.6 | 0.00 | 0.18 | 0.18 | 83 | 1007.1 |
| 20260507010554 | 59 | 212 | 3.5 | 9.6 | 0.00 | 0.18 | 0.18 | 83 | 1007.1 |
| 20260507010116 | 59 | 149 | 2.6 | 9.6 | 0.00 | 0.18 | 0.18 | 83 | 1007.1 |
| 20260507005547 | 59 | 185 | 2.6 | 6.1 | 0.00 | 0.18 | 0.18 | 83 | 1007.0 |
| 20260507005045 | 60 | 207 | 3.5 | 7.0 | 0.00 | 0.18 | 0.18 | 83 | 1007.0 |
| 20260507004547 | 59 | 176 | 4.3 | 7.8 | 0.00 | 0.18 | 0.18 | 83 | 1006.9 |
| 20260507004040 | 60 | 147 | 3.5 | 7.8 | 0.00 | 0.18 | 0.18 | 82 | 1007.1 |
| 20260507003539 | 60 | 187 | 3.5 | 7.0 | 0.00 | 0.18 | 0.18 | 82 | 1007.0 |
| 20260507003321 | 60 | 143 | 2.6 | 6.1 | 0.00 | 0.18 | 0.18 | 82 | 1006.9 |
| 20260507002539 | 60 | 188 | 2.6 | 7.0 | 0.00 | 0.18 | 0.18 | 82 | 1006.9 |
| 20260507002038 | 60 | 194 | 2.6 | 7.0 | 0.01 | 0.18 | 0.18 | 82 | 1006.9 |
| 20260507001539 | 60 | 203 | 2.6 | 6.1 | 0.01 | 0.18 | 0.18 | 82 | 1007.0 |
| 20260507001038 | 60 | 172 | 3.5 | 8.7 | 0.02 | 0.18 | 0.18 | 82 | 1006.9 |
| 20260507000613 | 60 | 178 | 3.5 | 10.4 | 0.05 | 0.18 | 0.18 | 81 | 1006.8 |
| 20260507000603 | 60 | 228 | 2.6 | 8.7 | 0.04 | 0.18 | 0.18 | 82 | 1006.9 |
| 20260506235613 | 60 | 186 | 3.5 | 7.0 | 0.06 | 0.18 | 0.18 | 81 | 1006.8 |
| 20260506235601 | 60 | 182 | 3.5 | 10.4 | 0.05 | 0.18 | 0.18 | 81 | 1006.7 |
| 20260506234533 | 60 | 195 | 3.5 | 7.0 | 0.07 | 0.18 | 0.18 | 81 | 1006.8 |
| 20260506234033 | 60 | 204 | 3.5 | 6.1 | 0.07 | 0.18 | 0.18 | 81 | 1006.8 |
| 20260506233532 | 60 | 169 | 2.6 | 7.0 | 0.08 | 0.18 | 0.18 | 81 | 1006.7 |
| 20260506233032 | 60 | 199 | 3.5 | 9.6 | 0.09 | 0.18 | 0.18 | 81 | 1006.8 |
| 20260506232531 | 60 | 161 | 3.5 | 9.6 | 0.09 | 0.18 | 0.18 | 80 | 1006.7 |
| 20260506232031 | 60 | 226 | 3.5 | 9.6 | 0.08 | 0.17 | 0.17 | 80 | 1006.8 |
| 20260506231531 | 60 | 191 | 4.3 | 7.8 | 0.08 | 0.17 | 0.17 | 80 | 1006.8 |
| 20260506231034 | 60 | 134 | 3.5 | 8.7 | 0.07 | 0.16 | 0.15 | 80 | 1006.8 |
| 20260506230531 | 60 | 184 | 3.5 | 9.6 | 0.05 | 0.14 | 0.14 | 80 | 1006.9 |
| 20260506230037 | 60 | 220 | 3.5 | 9.6 | 0.04 | 0.13 | 0.13 | 79 | 1007.0 |
| 20260506225532 | 60 | 178 | 3.5 | 8.7 | 0.04 | 0.13 | 0.12 | 79 | 1007.1 |
| 20260506225032 | 60 | 182 | 4.3 | 8.7 | 0.04 | 0.12 | 0.12 | 79 | 1007.0 |
| 20260506224528 | 60 | 190 | 4.3 | 8.7 | 0.03 | 0.11 | 0.11 | 79 | 1007.1 |
| 20260506224028 | 60 | 213 | 4.3 | 12.2 | 0.03 | 0.11 | 0.11 | 79 | 1007.0 |
| 20260506223524 | 60 | 169 | 3.5 | 12.2 | 0.02 | 0.10 | 0.10 | 79 | 1007.1 |
| 20260506223023 | 60 | 182 | 3.5 | 7.0 | 0.01 | 0.09 | 0.09 | 79 | 1007.1 |
| 20260506222522 | 60 | 213 | 4.3 | 8.7 | 0.01 | 0.09 | 0.09 | 78 | 1007.2 |
| 20260506222023 | 60 | 177 | 5.2 | 9.6 | 0.01 | 0.09 | 0.09 | 78 | 1007.1 |